Location: Makanda
(37.6176°N, 89.2090°W)
Time: 01:42:58
(UTC+00:00)

Cosmos 2181 Rocket - Pass Details

Date: 23 September 2019
Orbit: 953 x 1014 km, 82.9° (Epoch: 18 October)

Event Time Altitude Azimuth Distance (km) Brightness Sun altitude
Rises 01:27:03 0° 185° (S) 3,646 6.9 -19.0°
Reaches altitude 10° 01:29:31 10° 186° (S) 2,711 6.2 -19.5°
Maximum altitude 01:35:45 88° 274° (W) 992 4.0 -20.7°
Drops below altitude 10° 01:42:08 10° 6° (N) 2,771 6.5 -21.9°
Sets 01:44:41 0° 7° (N) 3,732 7.2 -22.4°
